This demonstration page uses our WeatherBlox Daily Observations layout. Learn more.

Left ArrowRight Arrow

Hourly Observations for December 30, 2019

Temp ( °F °C ) Dew Point ( °F °C ) Humidity (%) Winds ( mph kmh ) Pressure ( in mb ) Visibility ( mi km ) Precip ( " mm )
12:52 am 00:52 Windy with Snow Likely 26 -3.3 18 -7.8 71 71 WNW 21 33 29.57 1001 9 14 0.00 0.00
1:52 am 01:52 Windy with Snow Likely 25 -3.9 19 -7.2 78 78 WNW 22 35 29.58 1002 8 13 0.00 0.00
2:52 am 02:52 Windy with Snow Likely 26 -3.3 18 -7.8 71 71 NW 23 37 29.61 1003 9 14 0.00 0.00
3:52 am 03:52 Windy with Snow Likely 25 -3.9 19 -7.2 78 78 NW 24 39 29.63 1003 9 14 0.00 0.00
4:52 am 04:52 Cloudy 25 -3.9 19 -7.2 78 78 WNW 22 35 29.65 1004 9 14 0.00 0.00
5:52 am 05:52 Windy with Snow Likely 25 -3.9 19 -7.2 78 78 NW 25 41 29.67 1005 9 14 0.00 0.00
6:52 am 06:52 Windy with Snow Likely 25 -3.9 18 -7.8 75 75 NW 24 39 29.70 1006 9 14 0.00 0.00
7:52 am 07:52 Cloudy 25 -3.9 18 -7.8 75 75 NW 29 46 29.72 1007 10 16 0.00 0.00
8:52 am 08:52 Windy with Snow Likely 25 -3.9 19 -7.2 78 78 NW 24 39 29.76 1008 8 13 0.00 0.00
9:52 am 09:52 Cloudy 25 -3.9 18 -7.8 75 75 WNW 26 43 29.79 1009 10 16 0.00 0.00
10:52 am 10:52 Cloudy 26 -3.3 19 -7.2 75 75 NW 24 39 29.80 1009 10 16 0.00 0.00
11:52 am 11:52 Cloudy 27 -2.8 19 -7.2 72 72 WNW 25 41 29.79 1009 10 16 0.00 0.00
12:52 pm 12:52 Cloudy 27 -2.8 19 -7.2 72 72 NW 20 31 29.81 1009 10 16 0.00 0.00
1:52 pm 13:52 Cloudy 27 -2.8 19 -7.2 72 72 NW 24 39 29.82 1010 10 16 0.00 0.00
2:52 pm 14:52 Cloudy 27 -2.8 19 -7.2 72 72 NW 24 39 29.85 1011 10 16 0.00 0.00
3:52 pm 15:52 Cloudy 27 -2.8 19 -7.2 72 72 WNW 20 31 29.88 1012 10 16 0.00 0.00
4:52 pm 16:52 Cloudy 27 -2.8 19 -7.2 72 72 NW 20 31 29.91 1013 10 16 0.00 0.00
5:52 pm 17:52 Cloudy 27 -2.8 21 -6.1 78 78 WNW 17 28 29.92 1013 10 16 0.00 0.00
6:52 pm 18:52 Cloudy 28 -2.2 22 -5.6 78 78 NW 20 31 29.92 1013 10 16 0.00 0.00
7:52 pm 19:52 Cloudy 29 -1.7 23 -5 78 78 WNW 16 26 29.91 1013 10 16 0.00 0.00
8:14 pm 20:14 Cloudy 29 -1.7 22 -5.6 75 75 WNW 18 30 29.94 1014 10 16 0.00 0.00
8:52 pm 20:52 Cloudy 30 -1.1 22 -5.6 72 72 WNW 15 24 29.90 1013 10 16 0.00 0.00
9:52 pm 21:52 Cloudy 30 -1.1 21 -6.1 69 69 WNW 15 24 29.89 1012 10 16 0.00 0.00
10:52 pm 22:52 Cloudy 30 -1.1 21 -6.1 69 69 NW 16 26 29.89 1012 10 16 0.00 0.00
10:59 pm 22:59 Cloudy 30 -1.1 21 -6.1 69 69 WNW 15 24 29.93 1013 10 16 0.00 0.00
11:52 pm 23:52 Cloudy 30 -1.1 21 -6.1 69 69 WNW 14 22 29.89 1012 10 16 0.00 0.00

Powered by AerisWeather